FW2664 Weather Reports


Display with metric or nautical units.
time (UTC)temp
F
wind
direction
speed
MPH
gust
MPH
rain 1hr
in
rain 24hr
in
rain mn
in
humidity
%
barometer
mb
20260903144042 91 226 2.0 2.0 0.00 0.00 0.00 64 1016.4
20260903143537 91 93 1.0 2.0 0.00 0.00 0.00 62 1016.3
20260903143033 92 98 0.0 2.0 0.00 0.00 0.00 61 1016.3
20260903142528 91 59 0.0 2.0 0.00 0.00 0.00 63 1016.3
20260903142025 90 68 2.0 3.0 0.00 0.00 0.00 64 1016.5
20260903141520 89 117 0.0 2.0 0.00 0.00 0.00 65 1016.2
20260903141015 88 122 0.0 3.0 0.00 0.00 0.00 66 1016.3
20260903140511 88 78 2.0 4.0 0.00 0.00 0.00 67 1016.3
20260903140006 88 347 2.0 2.0 0.00 0.00 0.00 67 1016.5
20260903135501 89 48 1.0 3.0 0.00 0.00 0.00 68 1016.3
20260903134956 89 66 2.0 2.0 0.00 0.00 0.00 68 1016.4
20260903134455 88 75 1.0 2.0 0.00 0.00 0.00 68 1016.4
20260903133952 87 63 0.0 2.0 0.00 0.00 0.00 71 1016.5
20260903133449 86 325 1.0 2.0 0.00 0.00 0.00 72 1016.6
20260903132944 85 37 2.0 2.0 0.00 0.00 0.00 74 1016.6
20260903132440 84 70 0.0 2.0 0.00 0.00 0.00 75 1016.6
20260903131939 84 23 2.0 3.0 0.00 0.00 0.00 76 1016.6
20260903131434 84 327 0.0 2.0 0.00 0.00 0.00 75 1016.7
20260903130933 86 335 1.0 2.0 0.00 0.00 0.00 72 1016.7
20260903130428 85 100 2.0 2.0 0.00 0.00 0.00 73 1016.7
20260903125927 85 88 1.0 3.0 0.00 0.00 0.00 72 1016.5
20260903125427 84 77 2.0 2.0 0.00 0.00 0.00 75 1016.9
20260903124926 84 320 0.0 3.0 0.00 0.00 0.00 75 1016.8
20260903124422 83 6 0.0 2.0 0.00 0.00 0.00 77 1016.8
20260903123920 83 19 1.0 2.0 0.00 0.00 0.00 77 1016.7
20260903123415 82 62 1.0 2.0 0.00 0.00 0.00 79 1016.6
20260903122914 81 74 1.0 2.0 0.00 0.00 0.00 81 1016.8
20260903122409 80 67 2.0 3.0 0.00 0.00 0.00 84 1016.7
20260903121908 78 64 2.0 3.0 0.00 0.00 0.00 86 1016.7
20260903121403 77 64 1.0 2.0 0.00 0.00 0.00 89 1016.7
20260903120859 76 56 2.0 2.0 0.00 0.00 0.00 90 1016.5
20260903120358 76 77 2.0 3.0 0.00 0.00 0.00 92 1016.4
20260903115856 75 83 2.0 4.0 0.00 0.00 0.00 93 1016.4
20260903115351 75 53 2.0 2.0 0.00 0.00 0.00 95 1016.5
20260903114846 75 70 0.0 2.0 0.00 0.00 0.00 95 1016.4
20260903114342 74 60 3.0 3.0 0.00 0.00 0.00 96 1016.3
20260903113837 74 63 1.0 2.0 0.00 0.00 0.00 96 1016.3
20260903113332 74 52 1.0 2.0 0.00 0.00 0.00 96 1016.3
20260903112828 74 24 0.0 2.0 0.00 0.00 0.00 96 1016.3
20260903112324 74 52 1.0 2.0 0.00 0.00 0.00 96 1016.3
20260903111823 74 81 1.0 2.0 0.00 0.00 0.00 96 1016.3
20260903111317 74 51 0.0 2.0 0.00 0.00 0.00 96 1016.1
20260903110813 75 58 0.0 2.0 0.00 0.00 0.00 96 1015.9
20260903110309 75 63 1.0 2.0 0.00 0.00 0.00 96 1015.9
20260903105809 74 43 1.0 2.0 0.00 0.00 0.00 96 1015.8
20260903105306 75 59 0.0 2.0 0.00 0.00 0.00 96 1015.8
20260903104806 75 60 1.0 2.0 0.00 0.00 0.00 96 1015.8
20260903104304 75 63 0.0 2.0 0.00 0.00 0.00 95 1015.7
20260903103800 75 73 0.0 2.0 0.00 0.00 0.00 95 1015.7
20260903103257 75 72 2.0 2.0 0.00 0.00 0.00 95 1015.7
20260903102752 75 65 1.0 2.0 0.00 0.00 0.00 95 1015.6
20260903102251 75 40 0.0 2.0 0.00 0.00 0.00 95 1015.6
20260903101750 75 40 0.0 2.0 0.00 0.00 0.00 95 1015.5
20260903101247 75 83 1.0 2.0 0.00 0.00 0.00 95 1015.6
20260903100742 75 84 2.0 2.0 0.00 0.00 0.00 95 1015.3
20260903100241 75 56 2.0 2.0 0.00 0.00 0.00 95 1015.6
20260903095739 75 95 1.0 2.0 0.00 0.00 0.00 94 1015.6
20260903095234 75 56 1.0 2.0 0.00 0.00 0.00 94 1015.4
20260903094729 75 50 0.0 2.0 0.00 0.00 0.00 94 1015.5
20260903094224 75 77 0.0 2.0 0.00 0.00 0.00 94 1015.3
20260903093719 75 113 0.0 2.0 0.00 0.00 0.00 94 1015.4
20260903093215 75 93 2.0 2.0 0.00 0.00 0.00 94 1015.4
20260903092713 75 54 1.0 2.0 0.00 0.00 0.00 94 1015.4
20260903092209 75 62 1.0 2.0 0.00 0.00 0.00 93 1015.3
20260903091707 75 72 1.0 2.0 0.00 0.00 0.00 93 1015.3
20260903091202 75 57 1.0 2.0 0.00 0.00 0.00 93 1015.3
20260903090658 75 77 0.0 2.0 0.00 0.00 0.00 93 1015.4
20260903090156 75 54 2.0 2.0 0.00 0.00 0.00 94 1015.4
20260903085655 75 71 0.0 2.0 0.00 0.00 0.00 94 1015.4
20260903085151 75 63 1.0 2.0 0.00 0.00 0.00 94 1015.6
20260903084648 75 63 0.0 2.0 0.00 0.00 0.00 93 1015.6
20260903084143 75 89 0.0 2.0 0.00 0.00 0.00 93 1015.6
20260903083639 75 67 1.0 2.0 0.00 0.00 0.00 93 1015.6
20260903083139 75 65 1.0 2.0 0.00 0.00 0.00 93 1015.5
20260903082633 75 56 1.0 2.0 0.00 0.00 0.00 93 1015.4
20260903082129 76 75 0.0 2.0 0.00 0.00 0.00 93 1015.4
20260903081624 76 77 0.0 2.0 0.00 0.00 0.00 93 1015.4
20260903081120 76 357 1.0 2.0 0.00 0.00 0.00 93 1015.2
20260903080616 76 62 0.0 2.0 0.00 0.00 0.00 92 1015.4
20260903080113 76 73 1.0 2.0 0.00 0.00 0.00 92 1015.3
20260903075607 76 96 0.0 2.0 0.00 0.00 0.00 92 1015.2
20260903075102 76 66 1.0 2.0 0.00 0.00 0.00 92 1015.2
20260903074601 76 23 0.0 2.0 0.00 0.00 0.00 92 1015.3
20260903074056 76 82 1.0 2.0 0.00 0.00 0.00 92 1015.2
20260903073551 76 81 2.0 2.0 0.00 0.00 0.00 92 1015.3
20260903073047 76 42 1.0 2.0 0.00 0.00 0.00 92 1015.4
20260903072543 76 87 1.0 2.0 0.00 0.00 0.00 92 1015.2
20260903072039 76 59 1.0 2.0 0.00 0.00 0.00 92 1015.2
20260903071535 76 68 2.0 2.0 0.00 0.00 0.00 92 1015.2
20260903071030 76 61 1.0 2.0 0.00 0.00 0.00 92 1015.2
20260903070530 77 59 0.0 2.0 0.00 0.00 0.00 92 1015.3
20260903070026 77 71 1.0 2.0 0.00 0.00 0.00 92 1015.2
20260903065525 77 79 1.0 2.0 0.00 0.00 0.00 92 1015.4
20260903065025 77 68 1.0 2.0 0.00 0.00 0.00 92 1015.4
20260903064525 77 46 1.0 2.0 0.00 0.00 0.00 92 1015.3
20260903064021 77 50 0.0 2.0 0.00 0.00 0.00 92 1015.2
20260903063516 77 55 1.0 2.0 0.00 0.00 0.00 91 1015.4
20260903063011 77 68 1.0 2.0 0.00 0.00 0.00 91 1015.4
20260903062506 77 75 1.0 2.0 0.00 0.00 0.00 91 1015.5
20260903062001 77 58 2.0 2.0 0.00 0.00 0.00 91 1015.4
20260903061456 77 64 0.0 2.0 0.00 0.00 0.00 91 1015.3
20260903060952 78 58 0.0 2.0 0.00 0.00 0.00 91 1015.5
20260903060451 78 53 2.0 3.0 0.00 0.00 0.00 91 1015.3
20260903055950 78 85 1.0 2.0 0.00 0.00 0.00 91 1015.3
20260903055449 78 68 1.0 2.0 0.00 0.00 0.00 91 1015.5
20260903054948 78 106 0.0 2.0 0.00 0.00 0.00 91 1015.3
20260903054443 78 34 2.0 2.0 0.00 0.00 0.00 90 1015.4
20260903053939 78 329 0.0 2.0 0.00 0.00 0.00 90 1015.2
20260903053438 78 48 1.0 2.0 0.00 0.00 0.00 90 1015.2
20260903052936 78 92 1.0 2.0 0.00 0.00 0.00 90 1015.4
20260903052431 78 84 1.0 2.0 0.00 0.00 0.00 89 1015.4
20260903051926 78 71 0.0 3.0 0.00 0.00 0.00 89 1015.3
20260903051422 78 80 0.0 2.0 0.00 0.00 0.00 89 1015.2
20260903050917 78 99 1.0 2.0 0.00 0.00 0.00 88 1015.4
20260903050416 79 42 0.0 2.0 0.00 0.00 0.00 88 1015.2
20260903045911 79 73 0.0 2.0 0.00 0.00 0.00 88 1015.2
20260903045406 79 98 0.0 2.0 0.00 0.00 0.00 87 1015.3
20260903044903 79 74 0.0 1.0 0.00 0.00 0.00 88 1015.2
20260903044403 79 69 0.0 3.0 0.00 0.00 0.00 87 1015.4
20260903043900 79 72 1.0 2.0 0.00 0.00 0.00 86 1015.2
20260903043355 79 74 1.0 2.0 0.00 0.00 0.00 85 1015.1
20260903042853 79 101 0.0 2.0 0.00 0.00 0.00 85 1015.2
20260903042349 79 70 2.0 2.0 0.00 0.00 0.00 85 1015.4
20260903041845 79 47 0.0 2.0 0.00 0.00 0.00 85 1015.1
20260903041341 79 84 1.0 2.0 0.00 0.00 0.00 84 1015.1
20260903040836 79 49 0.0 2.0 0.00 0.00 0.00 83 1015.3
20260903040335 80 63 0.0 2.0 0.00 0.00 0.00 83 1015.3
20260903035832 80 95 0.0 2.0 0.00 0.00 0.00 82 1015.3
20260903035326 80 59 0.0 2.0 0.00 0.00 0.00 81 1015.3
20260903034822 80 77 0.0 2.0 0.00 0.00 0.00 81 1015.2
20260903034317 80 84 0.0 2.0 0.00 0.00 0.00 80 1015.2
20260903033812 80 57 1.0 2.0 0.00 0.00 0.00 80 1015.3
20260903033307 80 79 1.0 2.0 0.00 0.00 0.00 80 1015.1
20260903032801 81 25 0.0 2.0 0.00 0.00 0.00 80 1015.2
20260903032257 81 108 1.0 2.0 0.00 0.00 0.00 79 1015.2
20260903031753 81 60 2.0 2.0 0.00 0.00 0.00 79 1015.3
20260903031252 81 40 1.0 3.0 0.00 0.00 0.00 79 1015.2
20260903030748 81 66 1.0 2.0 0.00 0.00 0.00 79 1015.3
20260903030243 81 63 0.0 2.0 0.00 0.00 0.00 79 1015.3
20260903025739 81 69 0.0 1.0 0.00 0.00 0.00 79 1015.4
20260903025234 81 81 0.0 2.0 0.00 0.00 0.00 78 1015.3
20260903024729 81 69 1.0 2.0 0.00 0.00 0.00 79 1015.4
20260903024228 81 66 0.0 2.0 0.00 0.00 0.00 77 1015.3
20260903023724 82 68 2.0 2.0 0.00 0.00 0.00 76 1015.3
20260903023220 82 72 0.0 2.0 0.00 0.00 0.00 76 1015.3
20260903022719 82 20 1.0 2.0 0.00 0.00 0.00 75 1015.3
20260903022218 82 72 0.0 2.0 0.00 0.00 0.00 75 1015.3
20260903021718 82 84 1.0 2.0 0.00 0.00 0.00 75 1015.2
20260903021214 82 74 1.0 2.0 0.00 0.00 0.00 74 1015.3
20260903020713 83 36 0.0 2.0 0.00 0.00 0.00 74 1015.3
20260903020208 83 60 1.0 2.0 0.00 0.00 0.00 74 1015.2
20260903015703 83 100 0.0 2.0 0.00 0.00 0.00 72 1015.1
20260903015159 83 19 1.0 2.0 0.00 0.00 0.00 73 1015.1
20260903014654 83 57 1.0 2.0 0.00 0.00 0.00 72 1015.1
20260903014153 83 56 0.0 2.0 0.00 0.00 0.00 72 1014.8
20260903013648 83 86 0.0 2.0 0.00 0.00 0.00 72 1014.9
20260903013148 84 81 1.0 2.0 0.00 0.00 0.00 72 1014.9
20260903012647 84 70 0.0 2.0 0.00 0.00 0.00 71 1014.8
20260903012146 84 41 0.0 2.0 0.00 0.00 0.00 70 1014.8
20260903011641 84 97 0.0 2.0 0.00 0.00 0.00 70 1014.9
20260903011140 85 96 0.0 2.0 0.00 0.00 0.00 69 1014.8
20260903010636 85 35 1.0 2.0 0.00 0.00 0.00 69 1014.7
20260903010135 85 77 0.0 2.0 0.00 0.00 0.00 69 1014.7
20260903005634 85 81 2.0 2.0 0.00 0.00 0.00 69 1014.8
20260903005130 86 104 1.0 2.0 0.00 0.00 0.00 68 1014.6
20260903004625 86 85 1.0 2.0 0.00 0.00 0.00 66 1014.6
20260903004120 86 99 0.0 1.0 0.00 0.00 0.00 67 1014.6
20260903003616 87 62 0.0 2.0 0.00 0.00 0.00 65 1014.5
20260903003111 87 49 1.0 2.0 0.00 0.00 0.00 63 1014.7
20260903002606 88 38 0.0 1.0 0.00 0.00 0.00 62 1014.8
20260903002100 88 83 0.0 2.0 0.00 0.00 0.00 61 1014.8
20260903001555 89 64 0.0 2.0 0.00 0.00 0.00 60 1014.8
20260903001054 89 73 0.0 2.0 0.00 0.00 0.00 60 1014.4
20260903000550 90 88 1.0 2.0 0.00 0.00 0.00 59 1014.6
20260903000044 90 74 0.0 2.0 0.00 0.00 0.00 58 1014.7
20260902235543 91 22 0.0 2.0 0.00 0.00 0.00 57 1014.6
20260902235039 91 84 0.0 1.0 0.00 0.00 0.00 55 1014.8
20260902234538 92 42 0.0 2.0 0.00 0.00 0.00 54 1014.7
20260902234037 92 72 0.0 2.0 0.00 0.00 0.00 53 1014.8
20260902233532 93 358 0.0 2.0 0.00 0.00 0.00 51 1014.8
20260902233027 93 89 0.0 2.0 0.00 0.00 0.00 50 1014.7
20260902232526 94 89 0.0 1.0 0.00 0.00 0.00 48 1014.8
20260902232020 94 37 0.0 1.0 0.00 0.00 0.00 48 1014.9
20260902231515 95 42 0.0 2.0 0.00 0.00 0.00 46 1014.8
20260902231015 95 29 0.0 2.0 0.00 0.00 0.00 46 1014.8
20260902230514 95 53 0.0 1.0 0.00 0.00 0.00 45 1014.7
20260902230009 95 54 1.0 2.0 0.00 0.00 0.00 45 1014.8
20260902225504 95 45 1.0 2.0 0.00 0.00 0.00 44 1014.7
20260902225004 96 31 0.0 2.0 0.00 0.00 0.00 47 1014.7
20260902224503 96 70 1.0 2.0 0.00 0.00 0.00 45 1014.8
20260902223959 96 25 1.0 2.0 0.00 0.00 0.00 43 1014.7
20260902223455 96 120 1.0 2.0 0.00 0.00 0.00 44 1014.8
20260902222954 97 70 2.0 3.0 0.00 0.00 0.00 42 1014.8
20260902222453 97 68 2.0 2.0 0.00 0.00 0.00 43 1014.8
20260902221952 98 17 1.0 2.0 0.00 0.00 0.00 42 1015.0
20260902221452 100 312 2.0 4.0 0.00 0.00 0.00 39 1014.9
20260902220947 102 102 2.0 2.0 0.00 0.00 0.00 38 1015.0
20260902220447 103 149 1.0 2.0 0.00 0.00 0.00 37 1015.0
20260902215942 101 349 0.0 2.0 0.00 0.00 0.00 39 1014.8
20260902215438 100 62 0.0 2.0 0.00 0.00 0.00 39 1014.9
20260902214934 100 89 0.0 1.0 0.00 0.00 0.00 38 1014.8
20260902214433 101 149 1.0 2.0 0.00 0.00 0.00 37 1014.9
20260902213932 102 153 2.0 2.0 0.00 0.00 0.00 37 1014.9
20260902213429 102 239 1.0 2.0 0.00 0.00 0.00 37 1015.0
20260902212927 103 137 1.0 2.0 0.00 0.00 0.00 35 1014.9
20260902212424 103 320 1.0 3.0 0.00 0.00 0.00 36 1015.2
20260902211920 103 74 0.0 2.0 0.00 0.00 0.00 39 1015.0
20260902211415 102 70 0.0 2.0 0.00 0.00 0.00 37 1015.2
20260902210910 101 278 0.0 2.0 0.00 0.00 0.00 38 1015.2
20260902210410 101 330 1.0 2.0 0.00 0.00 0.00 37 1015.1
20260902205908 102 329 0.0 2.0 0.00 0.00 0.00 39 1015.1
20260902205403 102 277 2.0 3.0 0.00 0.00 0.00 37 1015.1
20260902204900 102 288 1.0 2.0 0.00 0.00 0.00 39 1015.2
20260902204358 101 240 1.0 2.0 0.00 0.00 0.00 39 1015.2
20260902203855 100 249 0.0 2.0 0.00 0.00 0.00 40 1015.3
20260902203350 102 164 1.0 3.0 0.00 0.00 0.00 37 1015.4
20260902202850 101 347 0.0 2.0 0.00 0.00 0.00 38 1015.4
20260902202345 102 224 0.0 3.0 0.00 0.00 0.00 38 1015.6
20260902201842 101 359 1.0 2.0 0.00 0.00 0.00 39 1015.6
20260902201342 100 136 1.0 3.0 0.00 0.00 0.00 42 1015.7
20260902200837 101 271 2.0 3.0 0.00 0.00 0.00 38 1015.8
20260902200332 102 260 2.0 3.0 0.00 0.00 0.00 39 1015.9
20260902195827 102 219 0.0 3.0 0.00 0.00 0.00 39 1015.8
20260902195327 101 286 1.0 2.0 0.00 0.00 0.00 40 1015.8
20260902194822 100 17 2.0 2.0 0.00 0.00 0.00 41 1015.9
20260902194316 100 278 3.0 3.0 0.00 0.00 0.00 40 1016.1
20260902193812 99 240 2.0 3.0 0.00 0.00 0.00 41 1016.0
20260902193308 99 335 1.0 3.0 0.00 0.00 0.00 44 1016.2
20260902192806 98 33 1.0 2.0 0.00 0.00 0.00 42 1016.2
20260902192307 98 260 3.0 3.0 0.00 0.00 0.00 42 1016.3
20260902191805 99 313 3.0 4.0 0.00 0.00 0.00 41 1016.3
20260902191300 100 37 0.0 1.0 0.00 0.00 0.00 43 1016.4
20260902190755 100 260 2.0 3.0 0.00 0.00 0.00 41 1016.6
20260902190255 100 263 1.0 4.0 0.00 0.00 0.00 41 1016.6
20260902185751 100 23 0.0 2.0 0.00 0.00 0.00 39 1016.7
20260902185246 100 16 2.0 2.0 0.00 0.00 0.00 40 1016.6
20260902184742 99 245 0.0 3.0 0.00 0.00 0.00 42 1016.6
20260902184242 99 209 0.0 3.0 0.00 0.00 0.00 41 1016.7
20260902183738 99 269 0.0 2.0 0.00 0.00 0.00 44 1016.7
20260902183234 99 154 0.0 1.0 0.00 0.00 0.00 42 1016.7
20260902182730 97 282 1.0 2.0 0.00 0.00 0.00 43 1016.6
20260902182226 99 40 0.0 1.0 0.00 0.00 0.00 40 1017.0
20260902181723 99 63 0.0 2.0 0.00 0.00 0.00 41 1017.0
20260902181222 98 250 2.0 2.0 0.00 0.00 0.00 41 1017.1
20260902180717 98 285 1.0 3.0 0.00 0.00 0.00 46 1017.0
20260902180212 97 99 1.0 2.0 0.00 0.00 0.00 43 1017.1
20260902175707 97 269 0.0 6.0 0.00 0.00 0.00 43 1017.2
20260902175203 97 313 2.0 4.0 0.00 0.00 0.00 44 1017.3
20260902174659 98 284 1.0 1.0 0.00 0.00 0.00 44 1017.5
20260902174155 98 140 1.0 3.0 0.00 0.00 0.00 42 1017.3
20260902173650 98 281 1.0 3.0 0.00 0.00 0.00 44 1017.6
20260902173144 97 53 2.0 2.0 0.00 0.00 0.00 43 1017.5
20260902172639 98 22 0.0 2.0 0.00 0.00 0.00 44 1017.6
20260902172138 98 226 2.0 2.0 0.00 0.00 0.00 43 1017.6
20260902171633 97 2 1.0 2.0 0.00 0.00 0.00 43 1017.6
20260902171129 97 132 0.0 3.0 0.00 0.00 0.00 42 1017.9
20260902170625 96 233 3.0 3.0 0.00 0.00 0.00 43 1017.9
20260902170120 97 280 2.0 2.0 0.00 0.00 0.00 43 1018.0
20260902165615 97 278 2.0 3.0 0.00 0.00 0.00 43 1018.1
20260902165115 96 242 0.0 3.0 0.00 0.00 0.00 43 1018.0
20260902164610 96 280 1.0 2.0 0.00 0.00 0.00 44 1018.2
20260902164109 96 223 2.0 2.0 0.00 0.00 0.00 43 1018.2
20260902163604 97 330 2.0 2.0 0.00 0.00 0.00 43 1018.4
20260902163102 98 276 2.0 3.0 0.00 0.00 0.00 47 1018.4
20260902162602 97 89 0.0 2.0 0.00 0.00 0.00 42 1018.4
20260902162057 96 279 0.0 2.0 0.00 0.00 0.00 42 1018.6
20260902161552 96 281 0.0 2.0 0.00 0.00 0.00 46 1018.6
20260902161048 96 34 0.0 3.0 0.00 0.00 0.00 47 1018.7
20260902160543 96 329 0.0 2.0 0.00 0.00 0.00 46 1018.8
20260902160038 95 255 0.0 2.0 0.00 0.00 0.00 52 1018.9
20260902155526 95 291 0.0 3.0 0.00 0.00 0.00 48 1018.5
20260902155025 96 194 0.0 2.0 0.00 0.00 0.00 49 1018.8
20260902154521 96 255 0.0 2.0 0.00 0.00 0.00 49 1018.7
20260902154015 96 296 2.0 2.0 0.00 0.00 0.00 49 1018.7
20260902153513 94 45 0.0 2.0 0.00 0.00 0.00 51 1018.6
20260902153010 94 219 2.0 3.0 0.00 0.00 0.00 52 1018.8
20260902152506 94 290 2.0 2.0 0.00 0.00 0.00 52 1018.8
20260902152001 95 241 1.0 2.0 0.00 0.00 0.00 54 1018.7
20260902151457 94 255 0.0 3.0 0.00 0.00 0.00 52 1018.7
20260902150956 95 217 0.0 2.0 0.00 0.00 0.00 54 1018.9
20260902150452 94 333 0.0 2.0 0.00 0.00 0.00 54 1018.7
20260902145952 94 306 2.0 2.0 0.00 0.00 0.00 54 1018.6
20260902145448 93 329 0.0 2.0 0.00 0.00 0.00 55 1018.8
20260902144947 91 284 0.0 2.0 0.00 0.00 0.00 59 1018.6
20260902144444 91 177 0.0 2.0 0.00 0.00 0.00 62 1018.8